Lid_Strength_Index
11 11 11 10 10 10 10 9 9 8 7 5 4 3 3 3 3 2 3 3 3 4
11 11 11 10 10 10 10 10 8 8 7 5 4 3 4 4 3 3 3 4 4 4
11 11 11 11 10 10 10 10 9 8 7 6 4 4 4 5 4 4 4 4 4 4
12 11 11 11 10 10 10 9 9 8 8 7 5 4 5 5 5 5 4 4 4 4
12 12 11 11 11 10 10 9 8 8 8 7 5 4 5 5 5 6 5 4 4 4
12 12 12 11 11 10 10 9 9 8 8 7 6 4 4 5 5 6 6 5 4 5
13 12 12 11 11 10 10 9 9 8 8 7 6 4 4 5 5 6 6 6 4 4
13 12 12 11 11 11 10 9 8 8 8 8 7 5 4 4 5 6 6 6 6 5
13 12 12 12 11 11 10 9 8 8 7 8 8 9 9 6 5 6 6 7 7 7
13 12 12 11 11 11 10 9 8 8 7 8 8 9 9 9 5 6 6 7 7 8
12 12 12 12 11 10 10 9 8 8 7 8 8 9 9 11 5 6 6 7 7 8
12 12 12 12 11 10 9 9 8 8 7 8 8 10 10 9 7 7 8 8 7 7
12 12 12 12 12 11 9 10 12 10 9 11 8 10 10 9 8 8 11 10 9 13
13 13 12 12 11 11 10 11 11 11 11 11 11 9 10 10 8 9 12 12 12 12